Regional Weather Roundup
Issued by NWS Nashville, TN

Home | Current Version | Previous Version | Text Only | Print | Product List | Glossary On
Versions: 1 2 3 4 5 6 7 8 9 10 11 12 13 14 15 16 17 18 19 20 21 22 23 24 25 26 27 28
000
ASUS44 KOHX 220610
RWROHX
MIDDLE TENNESSEE HOURLY WEATHER ROUNDUP
NATIONAL WEATHER SERVICE NASHVILLE TN
100 AM CDT TUE AUG 22 2017

NOTE: "FAIR" INDICATES FEW OR NO CLOUDS BELOW 12,000 FEET WITH
NO SIGNIFICANT WEATHER AND/OR OBSTRUCTIONS TO VISIBILITY.

* THESE REPORTS ARE NOT UNDER NWS QUALITY CONTROL AND MAY NOT
  REPORT WEATHER SUCH AS PRECIPITATION AND FOG.


TNZ005>011-023>034-057-059-062>066-078-080-220700
...NORTHERN MIDDLE TENNESSEE...

CITY           SKY/WX    TMP DP  RH WIND       PRES   REMARKS
CLARKSVILLE    PTCLDY    76  71  85 CALM      30.07F
CROSSVILLE     CLEAR     69  65  86 CALM      30.18F
GALLATIN       CLEAR     73  70  88 CALM      30.11S
DICKSON        CLEAR     77  69  76 S6        30.10F
LEBANON        CLEAR     72  67  84 S3        30.07F
NASHVILLE      CLEAR     74  69  85 S5        30.09F
PORTLAND       CLEAR     75  70  83 S7        30.08F
SMYRNA         CLEAR     73  69  87 S5        30.10F
SPARTA         CLEAR     73  70  88 S5        30.12F
SPRINGFIELD    MOCLDY    75  72  88 S7        30.06F
WEST NASHVILLE CLEAR     75  72  88 CALM      30.06F
$$
TNZ056-058-060-061-075>077-079-093>097-220700
...SOUTHERN MIDDLE TENNESSEE...

CITY           SKY/WX    TMP DP  RH WIND       PRES   REMARKS
COLUMBIA       CLEAR     73  73 100 CALM      30.08F
FAYETTEVILLE   CLEAR     73  72  94 CALM      30.12F
MCMINNVILLE    CLEAR     72  72 100 CALM      30.13F
MURFREESBORO   CLEAR     75  68  79 S3        30.09F
PULASKI        CLEAR     72  70  94 CALM      30.10F FOG
SHELBYVILLE    CLEAR     72  70  94 CALM      30.11F
TULLAHOMA      CLEAR     72  68  88 CALM      30.15F
WINCHESTER     CLEAR     72  70  94 CALM      30.14F
$$


...KEY TO REMARKS...
VSB - VISIBILITY IN MILES
WCI - WIND CHILL INDEX
HX  - HEAT INDEX





USA.gov is the U.S. government's official web portal to all federal, state and local government web resources and services.